Tracking 22779 objects as of 12-Apr-2021
HD Live streaming from Space Station
objects crossing your sky now

WESTFORD NEEDLES

Track WESTFORD NEEDLES now!
10-day predictions
WESTFORD NEEDLES is classified as:


NORAD ID: 5702
Int'l Code: 1963-014CU
Perigee: 1,965.4 km
Apogee: 5,219.3 km
Inclination: 86.6 °
Period: 165.0 minutes
Semi major axis: 9963 km
RCS: 0.1919 m2 (medium)
Launch date: May 9, 1963
Source: United States (US)
Launch site: AIR FORCE WESTERN TEST RANGE (AFWTR)
aabbcc
Your satellite tracking list
Your tracking list is empty




NASA's NSSDC Master Catalog

Two Line Element Set (TLE):
1  5702U 63014CU  21102.02173835 -.00000336  00000-0 -39110-1 0  9992
2  5702  86.5653 336.9413 1632889 102.9324 275.8283  8.72961407657216
Source of the keplerian elements: AFSPC